SCP
0 0 0 0 0 0 0 0 0 0 0 0 0 0 0 0 0 0 0 0 -0 -0 0 -0 -0 -0 -0 -0 -0 -0 -0 -0 -0 -0 -0 -0 -0 -0 -0 -0 -0 -0 -0 -0 -0 -0 -0 0 0
0 0 0 0 0 0 0 0 0 0 0 0 0 0 0 0 0 0 0 0 0 0 0 0 -0 -0 -0 -0 -0 -0 -0 -0 -0 -0 -0 -0 -0 -0 -0 -0 -0 -0 -0 -0 -0 -0 -0 -0 -0
0 0 0 0 0 0 0 0 0 0 0 0 0 0 0 0 0 0 0 0 0 0 0 0 -0 -0 -0 -0 -0 -0 -0 -0 -0 -0 -0 -0 -0 -0 -0 -0 -0 -0 -0 -0 -0 -0 -0 -0 -0
0 0 0 0 0 0 0 0 0 0 0 0 0 0 0 0 0 0 0 0 0 0 0 0 -0 -0 -0 -0 -0 -0 -0 -0 -0 -0 -0 -0 -0 -0 -0 -0 -0 0 0 0 0 0 0 0 0
0 0 0 0 0 0 0 0 0 0 0 0 0 0 0 0 0 0 -0 0 0 0 0 0 0 -0 -0 -0 -0 -0 -0 -0 -0 -0 -0 -0 0 0 0 0 0 0 0 0 0 0 0 0 0
0 0 0 0 0 0 0 0 0 0 0 0 0 0 0 0 0 0 0 -0 0 0 0 0 0 0 -0 -0 0 0 0 0 -0 -0 -0 0 0 0 0 0 0 0 0 0 0 0 0 0 0
0 0 0 0 0 0 0 0 0 0 0 0 0 0 0 0 0 0 0 0 0 0 0 0 0 0 0 0 0 0 0 0 0 0 0 0 0 0 0 0 0 0 0 0 0 0 0 0 0
0 0 0 0 0 0 0 0 0 0 0 0 0 0 0 0 0 0 0 0 0 0 0 0 0 0 0 0 0 0 0 0 0 0 0 0 0 0 0 0 0 0 0 0 0 0 0 0 0
0 0 0 0 0 0 0 0 0 0 0 0 0 0 0 0 -0 0 0 0 0 0 0 0 0 0 0 0 0 0 0 0 0 0 0 0 0 0 0 0 0 0 0 0 0 0 0 0 0
0 0 0 0 0 0 0 0 0 0 0 0 0 0 0 0 -0 -0 0 -0 0 0 0 0 0 0 0 0 0 0 0 0 0 0 0 0 0 0 0 0 0 0 0 0 0 0 0 0 0
0 0 0 0 0 0 0 0 0 0 0 0 0 0 0 0 0 0 0 0 -0 0 0 0 0 0 0 0 0 0 0 0 0 0 0 0 0 0 0 0 0 0 0 0 0 0 0 0 0
0 0 0 0 0 0 0 0 0 0 0 0 0 0 0 0 0 0 0 0 0 0 0 0 0 0 0 0 0 0 0 0 0 0 0 0 0 0 0 0 0 0 0 0 0 0 0 0 0
0 0 0 0 0 0 0 0 0 0 0 0 0 0 0 0 0 0 0 0 0 0 0 0 0 0 0 0 0 0 0 0 0 0 0 0 0 0 0 0 0 0 0 0 0 0 0 0 0
0 0 0 0 0 0 0 0 0 0 0 0 0 0 0 0 0 0 0 0 0 0 0 0 0 0 0 0 0 0 0 0 0 0 0 0 0 0 0 0 0 0 0 0 0 0 0 0 0
0 0 0 0 0 0 0 0 0 0 0 0 0 0 0 0 0 0 0 0 0 0 0 0 0 0 0 0 0 0 0 0 0 0 0 0 0 0 0 0 0 0 0 0 0 0 0 0 0
0 0 0 0 0 0 0 0 0 0 0 0 0 0 0 0 0 0 0 0 0 0 0 0 0 0 0 0 0 0 0 0 0 0 0 0 0 0 0 0 0 0 0 0 0 0 0 0 0
0 0 0 0 0 0 0 0 0 0 0 0 0 0 0 0 0 0 0 0 0 0 0 0 0 0 0 0 0 0 0 0 0 0 0 0 0 0 0 0 0 0 0 0 0 0 0 0 0
0 0 0 0 0 0 0 0 0 0 0 0 0 0 0 0 0 0 0 0 0 0 0 0 0 0 0 0 0 0 0 0 0 0 0 0 0 0 0 0 0 0 0 0 0 0 0 0 0
0 0 0 0 0 0 0 0 0 0 0 0 0 0 0 0 0 0 0 0 0 0 0 0 0 0 0 0 0 0 0 0 0 0 0 0 0 0 0 0 0 0 0 0 0 0 0 0 0
0 0 0 0 0 0 0 0 0 0 0 0 0 0 0 0 0 0 0 0 0 0 0 0 0 0 0 0 0 0 0 0 0 0 0 0 0 0 0 0 0 0 0 0 0 0 0 0 0
0 0 0 0 0 0 0 -0 0 0 0 0 0 0 0 0 0 0 0 0 0 0 0 0 0 0 0 0 0 0 0 0 0 0 0 0 0 0 0 0 0 0 0 0 0 0 0 0 0
0 0 0 0 0 0 0 -0 0 0 0 0 0 0 0 0 0 0 0 0 0 0 0 0 0 0 0 0 0 0 0 0 0 0 0 0 0 0 0 0 0 0 0 0 0 0 0 0 0
0 0 0 0 0 0 0 0 0 0 0 0 0 0 0 0 0 0 0 0 0 0 0 0 0 0 0 0 0 0 0 0 0 0 0 0 0 0 0 0 0 0 0 0 0 0 0 0 0
0 0 0 0 0 0 0 0 0 0 0 0 0 0 0 0 0 0 0 0 0 0 0 0 0 0 0 0 0 0 0 0 0 0 0 0 0 0 0 0 0 0 0 0 0 0 0 0 0
0 0 0 0 0 0 0 0 0 0 0 0 0 0 0 0 0 0 0 0 0 0 0 0 0 0 0 0 0 0 0 0 0 0 0 0 0 0 0 0 0 0 0 0 0 0 0 0 0
0 0 0 0 0 0 0 0 0 0 0 0 0 0 0 0 0 0 0 0 0 0 0 0 0 0 0 0 0 0 0 0 0 0 0 0 0 0 0 0 0 0 0 0 0 0 0 0 0
0 0 0 0 0 0 0 0 0 0 0 0 0 0 0 0 0 0 0 0 0 0 0 0 0 0 0 0 0 0 0 0 0 0 0 0 0 0 0 0 0 0 0 0 0 0 0 0 0
0 0 0 0 0 0 0 0 0 0 0 0 0 0 0 0 0 0 0 0 0 0 0 0 0 0 0 0 0 0 0 0 0 0 0 0 0 0 0 0 0 0 0 0 0 0 0 0 0
0 0 0 0 0 0 0 0 0 0 0 0 0 0 0 0 0 0 0 0 0 0 0 0 0 0 0 0 0 0 0 0 0 0 0 0 0 0 0 0 0 0 0 0 0 0 0 0 0
0 0 0 0 0 0 0 0 0 0 0 0 0 0 0 0 0 0 0 0 0 0 0 0 0 0 0 0 0 0 0 0 0 0 0 0 0 0 0 0 0 0 0 0 0 0 0 0 0
Wind_Speed_500mb
9 8 5 1 7 9 8 10 3 5 2 4 10 7 13 8 10 9 12 26 28 34 35 33 28 27 28 27 24 23 23 21 20 19 16 12 10 11 10 10 9 11 9 8 11 6 6 6 8
9 8 5 4 8 4 10 10 11 9 10 18 13 12 4 8 10 8 25 30 31 36 37 32 30 30 29 26 23 24 24 24 24 23 18 16 16 16 16 14 13 13 12 14 16 13 11 12 13
10 7 2 7 6 8 8 10 11 6 14 12 7 5 6 7 18 11 24 28 33 37 38 34 32 31 30 27 27 26 26 26 24 18 17 16 15 15 14 14 15 16 17 19 20 19 19 20 20
9 5 5 6 11 14 11 10 12 13 7 9 8 4 8 16 7 14 24 25 35 41 42 37 36 33 31 30 29 26 25 21 17 16 14 13 12 12 12 12 13 13 16 17 18 19 19 19 20
9 4 5 2 10 11 11 10 34 10 9 13 16 8 9 15 25 18 20 25 34 44 46 42 39 36 34 32 29 25 23 18 17 14 11 10 9 9 9 10 10 12 13 14 14 14 14 16 16
4 4 4 6 10 9 7 21 18 13 12 10 11 5 10 19 26 25 25 26 33 41 44 44 42 39 38 36 31 26 22 20 17 14 10 6 3 3 3 3 3 3 3 4 5 6 8 9 11
7 7 8 7 10 10 9 26 14 15 16 16 9 12 13 27 26 27 27 30 35 45 47 45 44 42 41 38 33 30 27 25 23 20 16 10 6 5 3 2 1 2 3 5 7 9 10 12 12
3 8 6 8 6 11 4 13 6 18 20 14 29 13 12 22 31 32 33 36 41 47 50 50 48 47 47 44 38 32 29 28 27 22 17 13 10 8 7 5 3 3 5 8 11 13 15 17 17
6 6 6 10 6 8 5 6 9 10 12 21 26 34 23 16 34 40 43 46 49 52 55 56 54 54 53 49 42 37 34 32 29 24 18 14 11 11 10 8 7 8 8 10 11 15 16 20 22
8 6 16 13 5 8 8 15 14 9 18 20 37 45 48 36 37 48 52 55 56 56 58 61 61 59 59 55 49 44 43 39 35 30 24 20 16 13 13 12 13 12 12 14 15 18 21 22 24
12 12 11 17 18 13 9 11 17 14 16 39 47 53 56 52 52 56 58 60 58 55 60 61 63 64 63 59 53 51 48 46 42 37 31 25 20 19 18 18 19 19 18 16 18 22 24 27 28
8 30 32 22 34 12 9 11 13 38 68 51 41 34 44 59 66 66 65 63 62 63 63 62 64 67 67 62 59 55 54 51 47 41 36 29 26 24 23 24 24 23 23 24 23 24 26 29 32
13 14 33 42 41 33 31 36 24 52 75 57 54 55 56 54 60 63 68 68 68 70 68 67 68 70 69 69 65 63 60 56 49 45 39 37 33 30 30 28 27 27 25 25 24 26 29 32 32
6 18 29 32 51 35 19 23 13 80 62 49 51 72 75 75 80 75 75 78 79 75 74 71 73 73 71 73 70 69 64 58 55 49 44 41 40 38 35 33 32 29 26 26 27 29 31 34 34
11 16 15 25 30 18 27 17 23 80 60 64 56 57 59 70 74 81 78 79 77 75 77 78 77 77 76 75 74 72 68 66 61 56 52 49 47 45 42 36 34 32 31 30 31 32 35 36 36
5 2 10 1 17 10 26 27 25 50 53 61 62 63 65 68 71 74 79 80 79 78 78 77 80 81 81 79 76 76 74 71 65 62 58 55 53 50 46 41 38 35 33 32 33 33 36 36 37
3 12 16 22 28 10 14 21 18 23 40 54 65 69 73 74 76 81 82 79 76 77 78 80 82 84 83 80 75 75 75 75 69 65 63 60 58 55 51 45 41 38 37 38 36 36 37 37 37
16 12 12 16 8 9 13 33 30 56 32 53 66 74 77 77 87 84 83 80 79 79 85 83 84 83 84 79 75 75 76 76 73 72 69 66 62 59 55 50 46 42 40 37 35 35 36 37 39
5 12 14 16 19 11 22 31 36 64 43 48 69 88 91 98 109 107 98 78 70 76 90 92 91 86 87 88 85 84 84 83 82 78 73 70 66 62 58 56 51 45 41 36 32 32 33 35 38
25 35 39 30 33 14 32 45 38 22 50 67 65 78 92 94 97 107 95 74 61 65 78 91 95 91 88 90 87 86 84 84 82 78 77 74 70 66 63 61 56 49 44 37 32 31 34 35 34
27 28 36 34 12 11 19 37 24 28 52 73 75 89 91 99 107 102 90 69 62 68 74 85 93 92 88 87 88 89 85 83 84 85 85 82 75 71 68 65 60 54 49 40 33 31 34 33 31
39 24 26 18 8 23 7 44 11 15 26 23 50 72 85 94 97 94 87 66 62 63 67 80 91 89 86 87 88 94 92 91 93 93 90 85 79 76 73 69 65 59 52 43 35 32 36 36 32
35 7 12 6 7 11 6 11 5 16 16 24 24 67 75 85 86 84 74 55 50 57 65 73 85 85 86 86 85 89 92 89 88 89 88 85 82 80 76 72 68 64 58 50 41 34 36 38 35
6 8 6 8 2 21 20 19 6 12 17 13 21 61 72 59 70 74 42 37 49 57 64 73 81 83 83 83 88 90 90 90 93 93 88 86 86 84 80 76 73 68 63 54 44 37 36 38 35
6 10 6 6 2 24 18 13 45 17 15 21 27 57 60 72 69 69 43 43 53 57 63 73 79 84 86 86 88 90 89 94 92 91 89 88 89 92 88 80 78 74 65 56 49 40 37 39 37
23 21 15 15 25 40 14 20 24 22 29 57 58 70 70 69 67 51 38 45 48 54 60 72 77 83 88 88 92 92 92 92 92 91 91 90 89 88 83 79 77 73 68 62 54 45 39 41 41
5 12 21 5 4 2 16 29 18 10 16 16 34 62 72 67 58 51 44 44 42 50 60 64 74 78 88 94 95 99 95 96 96 92 90 91 88 85 80 77 77 75 71 65 58 49 41 42 45
13 5 3 2 9 18 26 13 30 14 18 15 21 35 41 35 29 25 26 27 35 43 53 58 65 75 89 93 96 102 100 98 99 94 90 91 90 89 82 79 81 77 73 68 61 53 47 48 48
4 9 11 6 8 26 31 31 17 19 7 16 16 32 26 12 7 4 9 14 28 40 51 58 67 81 95 95 94 102 106 105 107 102 96 91 90 89 85 83 84 81 76 70 64 58 53 53 51
10 29 27 22 28 12 20 29 53 48 38 30 45 38 19 27 38 42 44 48 55 61 65 70 77 89 85 89 95 99 104 108 113 112 106 98 96 89 86 86 85 83 80 74 69 64 58 55 52
Wind_Direction_500mb
176 196 211 320 39 57 275 269 238 175 138 150 150 159 180 133 165 207 177 178 186 191 197 198 196 196 198 199 196 201 204 205 208 211 211 221 220 220 235 232 223 235 243 252 271 290 294 282 286
175 196 185 89 87 23 270 255 204 210 164 138 131 121 136 218 188 197 172 184 195 196 194 195 194 197 199 201 201 203 208 211 213 214 211 222 237 243 238 237 240 236 240 248 257 265 267 264 261
179 183 172 102 121 199 231 239 211 196 165 190 160 192 196 215 204 216 199 204 198 195 195 195 197 199 199 199 204 205 208 214 218 228 220 225 230 235 242 242 240 245 252 260 268 267 262 262 263
175 178 74 98 231 258 234 236 195 155 183 190 161 228 243 214 199 212 206 209 203 194 194 195 198 200 201 205 206 201 205 210 209 209 212 222 229 236 245 252 261 266 267 268 271 272 271 266 265
170 133 64 297 253 257 251 223 179 176 190 194 181 249 237 232 228 220 217 211 208 198 196 196 199 201 205 204 200 202 208 206 212 215 214 217 221 232 238 245 253 255 260 268 274 281 283 283 279
124 96 70 236 249 257 254 189 182 201 207 180 194 209 246 236 231 231 226 218 211 210 204 203 203 204 204 202 202 204 206 204 198 195 190 190 198 222 228 217 206 209 230 256 287 298 306 306 309
119 95 218 233 256 294 228 184 197 206 192 219 213 171 241 235 222 223 225 220 215 210 213 213 211 210 206 205 204 203 201 199 192 182 184 193 212 234 236 231 244 323 340 334 325 323 322 319 320
169 106 283 256 251 268 237 186 241 206 231 222 208 231 247 258 216 213 219 222 217 216 217 218 217 214 213 213 212 210 207 202 194 191 192 200 207 217 221 225 234 283 313 318 318 319 318 316 314
195 68 240 247 222 263 215 240 225 239 232 209 213 240 248 251 212 212 217 220 220 220 221 221 220 217 215 217 216 212 211 208 204 201 204 208 208 207 212 226 239 269 288 296 311 317 319 317 317
159 148 226 220 220 227 247 231 253 228 234 235 239 243 247 247 226 221 224 227 226 225 224 223 223 221 220 219 218 216 214 211 209 208 209 209 222 233 244 250 260 264 268 288 302 304 308 314 314
192 214 223 263 263 279 243 242 236 217 253 235 243 259 247 243 240 239 238 241 249 236 231 230 227 225 224 224 220 219 217 214 212 212 216 221 227 236 247 258 264 270 280 283 287 295 304 307 309
216 239 239 265 278 281 253 263 239 227 255 263 272 267 261 250 245 245 245 247 245 242 239 236 232 229 227 224 225 224 221 218 217 217 220 225 233 240 244 248 255 261 266 276 286 293 298 304 311
221 252 254 257 262 273 278 253 252 267 269 264 261 256 255 252 252 254 253 251 246 243 242 240 235 233 230 227 226 225 224 223 222 222 221 224 229 236 243 251 256 261 267 272 281 290 299 306 309
278 272 274 275 271 268 229 270 228 272 284 277 262 254 250 252 256 259 255 253 247 246 244 241 240 237 233 233 229 229 227 225 224 225 225 226 230 236 243 250 255 259 262 266 274 284 292 296 304
292 306 303 250 256 237 217 286 223 259 268 276 268 263 257 253 253 253 256 255 257 256 247 242 240 239 236 235 232 231 229 228 227 228 228 228 232 235 239 245 251 255 259 267 278 289 297 302 307
315 335 305 265 144 238 165 260 243 263 258 264 269 271 263 255 256 259 258 257 256 253 250 247 240 238 236 234 233 231 230 229 227 228 229 230 232 235 238 242 245 250 256 265 277 286 292 299 303
279 238 221 305 207 148 187 253 261 249 234 254 270 273 272 265 259 258 258 257 257 258 253 248 241 238 235 233 231 231 231 231 229 229 230 231 232 234 235 238 243 248 255 265 276 284 291 295 300
219 220 246 244 242 193 231 251 273 274 249 257 267 269 269 266 262 264 263 262 262 260 255 246 243 236 231 230 228 229 230 231 230 229 230 231 232 233 233 237 238 242 249 259 271 282 289 293 300
205 221 238 254 268 233 233 246 251 267 270 254 261 266 263 261 269 272 274 272 265 256 250 243 236 233 226 224 223 224 228 228 228 228 229 230 231 232 234 235 238 241 247 257 269 280 287 292 301
246 258 263 271 263 207 262 259 262 250 264 263 259 263 264 268 269 272 274 273 263 254 250 241 234 233 228 225 227 228 230 231 232 230 231 231 232 233 233 234 235 237 243 254 267 279 285 289 301
229 238 254 259 304 236 286 275 257 248 254 263 259 259 265 266 269 272 274 270 263 255 246 243 233 231 227 225 224 227 229 231 230 228 230 230 230 232 233 234 234 235 238 247 261 279 285 289 300
261 226 256 261 300 279 113 294 228 244 244 246 252 260 258 265 267 270 273 270 261 254 245 238 232 229 226 226 227 227 229 227 230 230 232 231 230 232 233 234 234 236 238 243 251 265 278 282 290
254 227 254 228 223 322 207 264 166 202 248 249 245 251 263 271 274 275 275 267 251 245 243 236 228 227 227 228 231 230 231 233 236 235 233 232 233 233 234 235 234 234 236 238 245 258 272 275 283
130 88 25 61 92 267 194 205 324 176 212 252 254 257 258 267 272 276 262 238 237 237 237 231 225 225 228 230 231 231 232 233 233 234 233 233 233 233 233 234 234 234 235 238 244 252 264 269 273
155 103 290 308 56 254 185 222 258 272 232 220 241 249 261 270 258 270 258 241 230 230 232 228 226 225 228 228 229 229 231 234 235 237 237 236 234 234 232 231 232 233 235 237 241 248 259 270 275
210 181 194 207 260 273 140 247 268 223 234 243 258 265 270 269 276 263 252 252 231 226 228 229 229 231 231 229 228 229 230 234 236 239 239 240 240 241 238 234 233 232 232 234 238 246 257 267 273
182 186 230 303 66 11 247 268 281 234 292 294 301 294 283 277 273 272 249 244 228 236 235 235 234 235 237 233 232 232 231 235 235 237 238 240 242 242 240 239 236 232 231 233 236 240 249 262 270
188 187 67 214 194 245 267 262 267 299 284 286 352 327 321 305 293 261 244 236 245 252 251 247 243 242 242 236 236 237 235 236 238 238 239 241 241 242 239 237 235 233 233 233 234 238 244 251 258
172 227 223 202 194 249 257 268 244 198 156 334 317 336 314 335 307 329 263 282 296 275 263 257 249 244 240 239 241 242 241 240 241 239 238 239 241 242 238 234 233 232 233 233 234 236 242 249 257
257 258 233 240 244 222 254 258 281 265 282 290 285 281 264 283 285 285 288 293 291 284 274 263 262 253 249 250 247 247 246 244 244 242 241 238 239 238 238 233 232 233 232 232 234 237 242 248 253
Wind_Speed_850mb
9 8 5 1 7 9 8 10 3 5 2 4 10 7 13 8 10 9 12 26 28 34 35 33 28 27 28 27 24 23 23 21 20 19 16 12 10 11 10 10 9 11 9 8 11 6 6 6 8
9 8 5 4 8 4 10 10 11 9 10 18 13 12 4 8 10 8 25 30 31 36 37 32 30 30 29 26 23 24 24 24 24 23 18 16 16 16 16 14 13 13 12 14 16 13 11 12 13
10 7 2 7 6 8 8 10 11 6 14 12 7 5 6 7 18 11 24 28 33 37 38 34 32 31 30 27 27 26 26 26 24 18 17 16 15 15 14 14 15 16 17 19 20 19 19 20 20
9 5 5 6 11 14 11 10 12 13 7 9 8 4 8 16 7 14 24 25 35 41 42 37 36 33 31 30 29 26 25 21 17 16 14 13 12 12 12 12 13 13 16 17 18 19 19 19 20
9 4 5 2 10 11 11 10 34 10 9 13 16 8 9 15 25 18 20 25 34 44 46 42 39 36 34 32 29 25 23 18 17 14 11 10 9 9 9 10 10 12 13 14 14 14 14 16 16
4 4 4 6 10 9 7 21 18 13 12 10 11 5 10 19 26 25 25 26 33 41 44 44 42 39 38 36 31 26 22 20 17 14 10 6 3 3 3 3 3 3 3 4 5 6 8 9 11
7 7 8 7 10 10 9 26 14 15 16 16 9 12 13 27 26 27 27 30 35 45 47 45 44 42 41 38 33 30 27 25 23 20 16 10 6 5 3 2 1 2 3 5 7 9 10 12 12
3 8 6 8 6 11 4 13 6 18 20 14 29 13 12 22 31 32 33 36 41 47 50 50 48 47 47 44 38 32 29 28 27 22 17 13 10 8 7 5 3 3 5 8 11 13 15 17 17
6 6 6 10 6 8 5 6 9 10 12 21 26 34 23 16 34 40 43 46 49 52 55 56 54 54 53 49 42 37 34 32 29 24 18 14 11 11 10 8 7 8 8 10 11 15 16 20 22
8 6 16 13 5 8 8 15 14 9 18 20 37 45 48 36 37 48 52 55 56 56 58 61 61 59 59 55 49 44 43 39 35 30 24 20 16 13 13 12 13 12 12 14 15 18 21 22 24
12 12 11 17 18 13 9 11 17 14 16 39 47 53 56 52 52 56 58 60 58 55 60 61 63 64 63 59 53 51 48 46 42 37 31 25 20 19 18 18 19 19 18 16 18 22 24 27 28
8 30 32 22 34 12 9 11 13 38 68 51 41 34 44 59 66 66 65 63 62 63 63 62 64 67 67 62 59 55 54 51 47 41 36 29 26 24 23 24 24 23 23 24 23 24 26 29 32
13 14 33 42 41 33 31 36 24 52 75 57 54 55 56 54 60 63 68 68 68 70 68 67 68 70 69 69 65 63 60 56 49 45 39 37 33 30 30 28 27 27 25 25 24 26 29 32 32
6 18 29 32 51 35 19 23 13 80 62 49 51 72 75 75 80 75 75 78 79 75 74 71 73 73 71 73 70 69 64 58 55 49 44 41 40 38 35 33 32 29 26 26 27 29 31 34 34
11 16 15 25 30 18 27 17 23 80 60 64 56 57 59 70 74 81 78 79 77 75 77 78 77 77 76 75 74 72 68 66 61 56 52 49 47 45 42 36 34 32 31 30 31 32 35 36 36
5 2 10 1 17 10 26 27 25 50 53 61 62 63 65 68 71 74 79 80 79 78 78 77 80 81 81 79 76 76 74 71 65 62 58 55 53 50 46 41 38 35 33 32 33 33 36 36 37
3 12 16 22 28 10 14 21 18 23 40 54 65 69 73 74 76 81 82 79 76 77 78 80 82 84 83 80 75 75 75 75 69 65 63 60 58 55 51 45 41 38 37 38 36 36 37 37 37
16 12 12 16 8 9 13 33 30 56 32 53 66 74 77 77 87 84 83 80 79 79 85 83 84 83 84 79 75 75 76 76 73 72 69 66 62 59 55 50 46 42 40 37 35 35 36 37 39
5 12 14 16 19 11 22 31 36 64 43 48 69 88 91 98 109 107 98 78 70 76 90 92 91 86 87 88 85 84 84 83 82 78 73 70 66 62 58 56 51 45 41 36 32 32 33 35 38
25 35 39 30 33 14 32 45 38 22 50 67 65 78 92 94 97 107 95 74 61 65 78 91 95 91 88 90 87 86 84 84 82 78 77 74 70 66 63 61 56 49 44 37 32 31 34 35 34
27 28 36 34 12 11 19 37 24 28 52 73 75 89 91 99 107 102 90 69 62 68 74 85 93 92 88 87 88 89 85 83 84 85 85 82 75 71 68 65 60 54 49 40 33 31 34 33 31
39 24 26 18 8 23 7 44 11 15 26 23 50 72 85 94 97 94 87 66 62 63 67 80 91 89 86 87 88 94 92 91 93 93 90 85 79 76 73 69 65 59 52 43 35 32 36 36 32
35 7 12 6 7 11 6 11 5 16 16 24 24 67 75 85 86 84 74 55 50 57 65 73 85 85 86 86 85 89 92 89 88 89 88 85 82 80 76 72 68 64 58 50 41 34 36 38 35
6 8 6 8 2 21 20 19 6 12 17 13 21 61 72 59 70 74 42 37 49 57 64 73 81 83 83 83 88 90 90 90 93 93 88 86 86 84 80 76 73 68 63 54 44 37 36 38 35
6 10 6 6 2 24 18 13 45 17 15 21 27 57 60 72 69 69 43 43 53 57 63 73 79 84 86 86 88 90 89 94 92 91 89 88 89 92 88 80 78 74 65 56 49 40 37 39 37
23 21 15 15 25 40 14 20 24 22 29 57 58 70 70 69 67 51 38 45 48 54 60 72 77 83 88 88 92 92 92 92 92 91 91 90 89 88 83 79 77 73 68 62 54 45 39 41 41
5 12 21 5 4 2 16 29 18 10 16 16 34 62 72 67 58 51 44 44 42 50 60 64 74 78 88 94 95 99 95 96 96 92 90 91 88 85 80 77 77 75 71 65 58 49 41 42 45
13 5 3 2 9 18 26 13 30 14 18 15 21 35 41 35 29 25 26 27 35 43 53 58 65 75 89 93 96 102 100 98 99 94 90 91 90 89 82 79 81 77 73 68 61 53 47 48 48
4 9 11 6 8 26 31 31 17 19 7 16 16 32 26 12 7 4 9 14 28 40 51 58 67 81 95 95 94 102 106 105 107 102 96 91 90 89 85 83 84 81 76 70 64 58 53 53 51
10 29 27 22 28 12 20 29 53 48 38 30 45 38 19 27 38 42 44 48 55 61 65 70 77 89 85 89 95 99 104 108 113 112 106 98 96 89 86 86 85 83 80 74 69 64 58 55 52
Wind_Direction_850mb
176 196 211 320 39 57 275 269 238 175 138 150 150 159 180 133 165 207 177 178 186 191 197 198 196 196 198 199 196 201 204 205 208 211 211 221 220 220 235 232 223 235 243 252 271 290 294 282 286
175 196 185 89 87 23 270 255 204 210 164 138 131 121 136 218 188 197 172 184 195 196 194 195 194 197 199 201 201 203 208 211 213 214 211 222 237 243 238 237 240 236 240 248 257 265 267 264 261
179 183 172 102 121 199 231 239 211 196 165 190 160 192 196 215 204 216 199 204 198 195 195 195 197 199 199 199 204 205 208 214 218 228 220 225 230 235 242 242 240 245 252 260 268 267 262 262 263
175 178 74 98 231 258 234 236 195 155 183 190 161 228 243 214 199 212 206 209 203 194 194 195 198 200 201 205 206 201 205 210 209 209 212 222 229 236 245 252 261 266 267 268 271 272 271 266 265
170 133 64 297 253 257 251 223 179 176 190 194 181 249 237 232 228 220 217 211 208 198 196 196 199 201 205 204 200 202 208 206 212 215 214 217 221 232 238 245 253 255 260 268 274 281 283 283 279
124 96 70 236 249 257 254 189 182 201 207 180 194 209 246 236 231 231 226 218 211 210 204 203 203 204 204 202 202 204 206 204 198 195 190 190 198 222 228 217 206 209 230 256 287 298 306 306 309
119 95 218 233 256 294 228 184 197 206 192 219 213 171 241 235 222 223 225 220 215 210 213 213 211 210 206 205 204 203 201 199 192 182 184 193 212 234 236 231 244 323 340 334 325 323 322 319 320
169 106 283 256 251 268 237 186 241 206 231 222 208 231 247 258 216 213 219 222 217 216 217 218 217 214 213 213 212 210 207 202 194 191 192 200 207 217 221 225 234 283 313 318 318 319 318 316 314
195 68 240 247 222 263 215 240 225 239 232 209 213 240 248 251 212 212 217 220 220 220 221 221 220 217 215 217 216 212 211 208 204 201 204 208 208 207 212 226 239 269 288 296 311 317 319 317 317
159 148 226 220 220 227 247 231 253 228 234 235 239 243 247 247 226 221 224 227 226 225 224 223 223 221 220 219 218 216 214 211 209 208 209 209 222 233 244 250 260 264 268 288 302 304 308 314 314
192 214 223 263 263 279 243 242 236 217 253 235 243 259 247 243 240 239 238 241 249 236 231 230 227 225 224 224 220 219 217 214 212 212 216 221 227 236 247 258 264 270 280 283 287 295 304 307 309
216 239 239 265 278 281 253 263 239 227 255 263 272 267 261 250 245 245 245 247 245 242 239 236 232 229 227 224 225 224 221 218 217 217 220 225 233 240 244 248 255 261 266 276 286 293 298 304 311
221 252 254 257 262 273 278 253 252 267 269 264 261 256 255 252 252 254 253 251 246 243 242 240 235 233 230 227 226 225 224 223 222 222 221 224 229 236 243 251 256 261 267 272 281 290 299 306 309
278 272 274 275 271 268 229 270 228 272 284 277 262 254 250 252 256 259 255 253 247 246 244 241 240 237 233 233 229 229 227 225 224 225 225 226 230 236 243 250 255 259 262 266 274 284 292 296 304
292 306 303 250 256 237 217 286 223 259 268 276 268 263 257 253 253 253 256 255 257 256 247 242 240 239 236 235 232 231 229 228 227 228 228 228 232 235 239 245 251 255 259 267 278 289 297 302 307
315 335 305 265 144 238 165 260 243 263 258 264 269 271 263 255 256 259 258 257 256 253 250 247 240 238 236 234 233 231 230 229 227 228 229 230 232 235 238 242 245 250 256 265 277 286 292 299 303
279 238 221 305 207 148 187 253 261 249 234 254 270 273 272 265 259 258 258 257 257 258 253 248 241 238 235 233 231 231 231 231 229 229 230 231 232 234 235 238 243 248 255 265 276 284 291 295 300
219 220 246 244 242 193 231 251 273 274 249 257 267 269 269 266 262 264 263 262 262 260 255 246 243 236 231 230 228 229 230 231 230 229 230 231 232 233 233 237 238 242 249 259 271 282 289 293 300
205 221 238 254 268 233 233 246 251 267 270 254 261 266 263 261 269 272 274 272 265 256 250 243 236 233 226 224 223 224 228 228 228 228 229 230 231 232 234 235 238 241 247 257 269 280 287 292 301
246 258 263 271 263 207 262 259 262 250 264 263 259 263 264 268 269 272 274 273 263 254 250 241 234 233 228 225 227 228 230 231 232 230 231 231 232 233 233 234 235 237 243 254 267 279 285 289 301
229 238 254 259 304 236 286 275 257 248 254 263 259 259 265 266 269 272 274 270 263 255 246 243 233 231 227 225 224 227 229 231 230 228 230 230 230 232 233 234 234 235 238 247 261 279 285 289 300
261 226 256 261 300 279 113 294 228 244 244 246 252 260 258 265 267 270 273 270 261 254 245 238 232 229 226 226 227 227 229 227 230 230 232 231 230 232 233 234 234 236 238 243 251 265 278 282 290
254 227 254 228 223 322 207 264 166 202 248 249 245 251 263 271 274 275 275 267 251 245 243 236 228 227 227 228 231 230 231 233 236 235 233 232 233 233 234 235 234 234 236 238 245 258 272 275 283
130 88 25 61 92 267 194 205 324 176 212 252 254 257 258 267 272 276 262 238 237 237 237 231 225 225 228 230 231 231 232 233 233 234 233 233 233 233 233 234 234 234 235 238 244 252 264 269 273
155 103 290 308 56 254 185 222 258 272 232 220 241 249 261 270 258 270 258 241 230 230 232 228 226 225 228 228 229 229 231 234 235 237 237 236 234 234 232 231 232 233 235 237 241 248 259 270 275
210 181 194 207 260 273 140 247 268 223 234 243 258 265 270 269 276 263 252 252 231 226 228 229 229 231 231 229 228 229 230 234 236 239 239 240 240 241 238 234 233 232 232 234 238 246 257 267 273
182 186 230 303 66 11 247 268 281 234 292 294 301 294 283 277 273 272 249 244 228 236 235 235 234 235 237 233 232 232 231 235 235 237 238 240 242 242 240 239 236 232 231 233 236 240 249 262 270
188 187 67 214 194 245 267 262 267 299 284 286 352 327 321 305 293 261 244 236 245 252 251 247 243 242 242 236 236 237 235 236 238 238 239 241 241 242 239 237 235 233 233 233 234 238 244 251 258
172 227 223 202 194 249 257 268 244 198 156 334 317 336 314 335 307 329 263 282 296 275 263 257 249 244 240 239 241 242 241 240 241 239 238 239 241 242 238 234 233 232 233 233 234 236 242 249 257
257 258 233 240 244 222 254 258 281 265 282 290 285 281 264 283 285 285 288 293 291 284 274 263 262 253 249 250 247 247 246 244 244 242 241 238 239 238 238 233 232 233 232 232 234 237 242 248 253